TimePST,TemperatureF,Dew PointF,Humidity,Sea Level PressureIn,VisibilityMPH,Wind Direction,Wind SpeedMPH,Gust SpeedMPH,PrecipitationIn,Events,Conditions,WindDirDegrees,DateUTC
12:53 AM,46.0,26.1,46,30.20,10.0,NNW,3.5,-,N/A,,Clear,330,2012-11-27 08:53:00
1:53 AM,45.0,26.1,48,30.20,10.0,NNW,4.6,-,N/A,,Clear,330,2012-11-27 09:53:00
2:53 AM,46.0,25.0,44,30.20,10.0,WNW,5.8,-,N/A,,Clear,300,2012-11-27 10:53:00
3:53 AM,46.4,26.6,46,30.17,10.0,Calm,Calm,-,N/A,,Clear,0,2012-11-27 11:53:00
4:53 AM,42.1,27.0,55,30.23,10.0,NW,4.6,-,N/A,,Clear,310,2012-11-27 12:53:00
5:53 AM,43.0,26.1,51,30.25,10.0,WNW,5.8,-,N/A,,Clear,300,2012-11-27 13:53:00
6:53 AM,42.1,26.1,53,30.27,10.0,NW,3.5,-,N/A,,Clear,310,2012-11-27 14:53:00
7:53 AM,48.0,27.0,44,30.29,10.0,NW,3.5,-,N/A,,Clear,320,2012-11-27 15:53:00
8:53 AM,54.0,26.1,34,30.30,10.0,Calm,Calm,-,N/A,,Clear,0,2012-11-27 16:53:00
9:53 AM,57.0,24.1,28,30.29,10.0,Calm,Calm,-,N/A,,Clear,0,2012-11-27 17:53:00
10:53 AM,60.1,25.0,26,30.26,10.0,SE,3.5,-,N/A,,Clear,130,2012-11-27 18:53:00
11:53 AM,63.0,21.9,21,30.24,10.0,SSE,6.9,-,N/A,,Clear,150,2012-11-27 19:53:00
12:53 PM,64.0,21.9,20,30.22,10.0,SE,5.8,-,N/A,,Clear,140,2012-11-27 20:53:00
1:53 PM,64.9,21.0,19,30.19,10.0,ESE,4.6,-,N/A,,Clear,110,2012-11-27 21:53:00
2:53 PM,64.0,21.9,20,30.18,10.0,South,3.5,-,N/A,,Clear,180,2012-11-27 22:53:00
3:53 PM,64.0,23.0,21,30.17,10.0,Calm,Calm,-,N/A,,Clear,0,2012-11-27 23:53:00
4:53 PM,60.1,24.1,25,30.18,10.0,Calm,Calm,-,N/A,,Clear,0,2012-11-28 00:53:00
5:53 PM,59.0,27.0,29,30.19,10.0,WNW,4.6,-,N/A,,Clear,300,2012-11-28 01:53:00
6:53 PM,55.9,27.0,33,30.20,10.0,NNW,3.5,-,N/A,,Clear,330,2012-11-28 02:53:00
7:53 PM,55.9,28.9,36,30.20,10.0,Calm,Calm,-,N/A,,Clear,0,2012-11-28 03:53:00
8:53 PM,54.0,28.9,38,30.20,10.0,NW,3.5,-,N/A,,Clear,320,2012-11-28 04:53:00
9:53 PM,52.0,30.0,43,30.20,10.0,NW,3.5,-,N/A,,Clear,310,2012-11-28 05:53:00
10:53 PM,50.0,28.0,43,30.21,10.0,NNW,4.6,-,N/A,,Clear,330,2012-11-28 06:53:00
11:53 PM,50.0,28.9,44,30.19,10.0,NNW,4.6,-,N/A,,Clear,340,2012-11-28 07:53:00